This is the latest recevied weather packets stored in our database for station/object NR6G-5. If no packets are shown the sender has not sent any weather packets the latest 10 day(s).
| Time | Temp. | Humidity | Pressure | Rain* | Wind** | Luminosity | Snow |
|---|---|---|---|---|---|---|---|
| 1777875078 | 16.67° C | 54% | 1012.8 hPa | 0 mm | - | - | - |
| 1777874777 | 16.67° C | 54% | 1012.8 hPa | 0 mm | - | - | - |
| 1777874478 | 16.67° C | 53% | 1012.8 hPa | 0 mm | - | - | - |
| 1777874178 | 17.22° C | 53% | 1013 hPa | 0 mm | - | - | - |
| 1777873877 | 17.22° C | 53% | 1013 hPa | 0 mm | - | - | - |
| 1777873577 | 17.22° C | 53% | 1013 hPa | 0 mm | - | - | - |
| 1777873276 | 17.22° C | 53% | 1013 hPa | 0 mm | - | - | - |
| 1777872677 | 17.22° C | 53% | 1012.8 hPa | 0 mm | - | - | - |
| 1777871779 | 17.22° C | 53% | 1013 hPa | 0 mm | - | - | - |
| 1777871176 | 17.22° C | 53% | 1012.8 hPa | 0 mm | - | - | - |
| 1777870577 | 17.22° C | 52% | 1012.3 hPa | 0 mm | - | - | - |
| 1777870037 | 17.22° C | 52% | 1012 hPa | 0 mm | - | - | - |
| 1777869736 | 17.22° C | 52% | 1012 hPa | 0 mm | - | - | - |
| 1777868839 | 17.22° C | 51% | 1011.7 hPa | 0 mm | - | - | - |
| 1777868236 | 17.22° C | 50% | 1011.4 hPa | 0 mm | - | - | - |
| 1777867036 | 17.78° C | 49% | 1011.4 hPa | 0 mm | - | - | - |
| 1777866136 | 18.33° C | 48% | 1010.7 hPa | 0 mm | - | - | - |
| 1777865258 | 18.89° C | 48% | 1010.4 hPa | 0 mm | - | - | - |
| 1777863528 | 19.44° C | 46% | 1009.6 hPa | 0 mm | - | - | - |
| 1777863227 | 19.44° C | 45% | 1009.6 hPa | 0 mm | - | - | - |
| 1777862927 | 20° C | 46% | 1009.5 hPa | 0 mm | - | - | - |
| 1777861428 | 21.11° C | 44% | 1008.7 hPa | 0 mm | - | - | - |
| 1777860827 | 21.67° C | 44% | 1008.5 hPa | 0 mm | - | - | - |
| 1777860527 | 22.22° C | 43% | 1008.3 hPa | 0 mm | - | - | - |
| 1777860228 | 22.22° C | 43% | 1007.9 hPa | 0 mm | - | - | - |
* Rain latest hour (hover to see other rain measurements)
** Current wind speed in m/s (hover to see current wind gust speed)